カタログに戻る

STARLINK-5706

運用中通信VLEO
NORAD 55488·PAYLOAD·🇺🇸 United States

打ち上げ Feb 2, 2023 から Cape Canaveral Space Force Station

Loading…

次のパス (今後24時間)

TLE

最新Source: CelesTrak SupGP

元期: Sep 15, 2026, 01:35 UTC

1 55488C 23015AR  26258.06645833 -.00009072  00000+0 -32863-3 0  2581
2 55488  43.0037 350.2259 0001659 281.0387 236.2871 15.27578594    18

AllMySatでSTARLINK-5706をリアルタイム追跡

Download on the App Store